Flag for Micronesia Weather past 2 weeks in Colonia, Yap, Micronesia

Now
80 °F

Passing clouds.


Feels Like: 84 °F
Forecast: 78 / 87 °F
Wind: 6 mph from North

Location: Yap Island

Current Time: Mar 29, 2015 at 11:58:59 PM

Latest Report: Mar 29, 2015 at 10:53 PM


Visibility: 12 mi

Pressure: 29.90 "Hg

Humidity: 81%

Dew point: 73 °F

Location of ColoniaLocation

Historic Weather in Colonia — Graph

°F

Colonia temperature yesterday

Maximum temperature yesterday: 85 °F (at 2:50 PM)
Minimum temperature yesterday: 78 °F (at 9:55 PM)
Average temperature yesterday: 81 °F

Past Weeks' High & Low Weather Summary

 TemperatureHumidityPressure
High88 °F (Mar 26, 1:50 PM)96% (Mar 22, 2:50 AM)29.98 "Hg (Mar 22, 2:50 AM)
Low73 °F (Mar 20, 6:55 AM)60% (Mar 26, 12:52 PM)29.75 "Hg (Mar 16, 4:50 PM)
Average81 °F80%29.88 "Hg
* Reported Mar 14 9:54 PM — Mar 29 9:52 PM, Colonia, Weather by CustomWeather, © 2015

Note: Actual official high and low records may vary slightly from our data, if they occured in-between our weather recording intervals... More about our weather records

Advertising

Colonia weather history for previous 24 hours

 ConditionsComfort  
Time TempWeatherWind HumidityBarometerVisibility
9:52 PM
Sun, Mar 29
80 °FPassing clouds.7 mph84%29.89 "Hg12 mi
8:53 PM80 °FPassing clouds.3 mph85%29.88 "Hg12 mi
6:53 PM82 °FBroken clouds.7 mph80%29.85 "Hg12 mi
5:54 PM83 °FPartly sunny.9 mph76%29.83 "Hg12 mi
4:54 PM85 °FBroken clouds.12 mph72%29.83 "Hg12 mi
3:52 PM86 °FBroken clouds.9 mph72%29.82 "Hg12 mi
2:50 PM86 °FBroken clouds.9 mph73%29.83 "Hg12 mi
1:51 PM87 °FBroken clouds.9 mph75%29.85 "Hg12 mi
12:53 PM86 °FBroken clouds.9 mph77%29.88 "Hg12 mi
11:50 AM86 °FBroken clouds.10 mph76%29.89 "Hg12 mi
10:50 AM85 °FBroken clouds.9 mph79%29.90 "Hg12 mi
9:54 AM83 °FBroken clouds.10 mph84%29.91 "Hg12 mi
8:50 AM82 °FBroken clouds.8 mph85%29.89 "Hg12 mi
7:50 AM81 °FCloudy.8 mph87%29.88 "Hg12 mi
6:50 AM80 °FOvercast.10 mph88%29.85 "Hg12 mi
5:50 AM80 °FOvercast.8 mph90%29.83 "Hg12 mi
4:50 AM80 °FOvercast.9 mph91%29.82 "Hg12 mi
3:50 AM79 °FOvercast.8 mph92%29.82 "Hg12 mi
2:55 AM79 °FOvercast.8 mph94%29.83 "Hg12 mi
1:50 AM79 °FOvercast.8 mph94%29.85 "Hg12 mi
12:51 AM79 °FPartly cloudy.5 mph94%29.87 "Hg12 mi
11:53 PM
Sat, Mar 28
79 °FOvercast.5 mph95%29.88 "Hg12 mi
Weather by CustomWeather, © 2015

See weather overviewHow to use our weather pages